Flag for Colombia Weather past 2 weeks in Santa Marta, Colombia

Now
81 °F

Clear.


Feels Like: 87 °F
Forecast: 82 / 89 °F
Wind: 10 mph from Northeast

Location: Barranquilla / Ernestocortissoz

Current Time: Jul 25, 2014 at 5:42:40 AM

Latest Report: Jul 25, 2014 at 5:00 AM


Visibility: 10 mi

Pressure: 29.77 "Hg

Humidity: 89%

Dew point: 77 °F

Location of Santa MartaLocation

Historic Weather in Santa Marta — Graph

°F

Santa Marta temperature yesterday

Maximum temperature yesterday: 95 °F (at 2:00 PM)
Minimum temperature yesterday: 81 °F (at 4:00 AM)
Average temperature yesterday: 85 °F

Past Weeks' High & Low Weather Summary

 TemperatureHumidityPressure
High99 °F (Jul 20, 12:00 PM)100% (Jul 14, 6:00 AM)29.91 "Hg (Jul 14, 6:00 AM)
Low77 °F (Jul 15, 3:00 AM)18% (Jul 24, 11:00 AM)29.70 "Hg (Jul 24, 2:00 PM)
Average85 °F79%29.81 "Hg
* Reported Jul 10 4:00 AM — Jul 25 4:00 AM, Santa Marta, Weather by CustomWeather, © 2014

Note: Actual official high and low records may vary slightly from our data, if they occured in-between our weather recording intervals... More about our weather records

Advertising

Santa Marta weather history for previous 24 hours

 ConditionsComfort  
Time TempWeatherWind HumidityBarometerVisibility
4:00 AM
Jul 25
81 °FClear.12 mph89%29.77 "Hg10 mi
3:00 AM81 °FClear.12 mph89%29.76 "Hg10 mi
2:00 AM81 °FClear.7 mph89%29.76 "Hg10 mi
1:00 AM81 °FClear.6 mph94%29.77 "Hg10 mi
12:00 AM81 °FClear.6 mph94%29.77 "Hg10 mi
11:00 PM
Jul 24
82 °FPassing clouds.9 mph89%29.79 "HgN/A
10:00 PM82 °FPassing clouds.10 mph84%29.80 "HgN/A
9:00 PM82 °FPassing clouds.7 mph84%29.78 "HgN/A
8:00 PM82 °FPassing clouds.9 mph84%29.76 "HgN/A
7:00 PM82 °FPassing clouds.12 mph84%29.76 "HgN/A
6:00 PM84 °FScattered clouds.14 mph84%29.73 "HgN/A
5:00 PM86 °FScattered clouds.14 mph79%29.73 "HgN/A
4:00 PM88 °FScattered clouds.14 mph75%29.74 "HgN/A
3:00 PM88 °FScattered clouds.12 mph75%29.74 "HgN/A
2:00 PM95 °FScattered clouds.5 mph39%29.70 "HgN/A
1:00 PM91 °FScattered clouds.9 mph67%29.77 "Hg5 mi
12:00 PM93 °FScattered clouds.10 mph63%29.80 "Hg2 mi
11:00 AM91 °FScattered clouds.7 mph18%29.81 "Hg2 mi
10:00 AM90 °FScattered clouds.7 mph75%29.82 "Hg2 mi
9:00 AM88 °FScattered clouds.5 mph79%29.82 "HgN/A
8:00 AM84 °FScattered clouds.5 mph79%29.80 "HgN/A
7:00 AM81 °FScattered clouds.6 mph89%29.78 "HgN/A
6:00 AM81 °FScattered clouds.10 mph89%29.77 "Hg4 mi
5:00 AM81 °FPassing clouds.3 mph89%29.75 "HgN/A
Weather by CustomWeather, © 2014

See weather overviewHow to use our weather pages